Flag for Germany Weather past 2 weeks in Langen, Hesse, Germany

Now
64 °F

Thundershowers. Broken clouds.


Feels Like: 64 °F
Forecast: 52 / 64 °F
Wind: 3 mph from Northeast

Location: Frankfurt-M-Flughafen Airport

Current Time: Sep 20, 2014 at 8:31:05 PM

Latest Report: Sep 20, 2014 at 7:50 PM


Visibility: N/A

Pressure: 29.95 "Hg

Humidity: 94%

Dew point: 63 °F

Location of LangenLocation

Historic Weather in Langen — Graph

°F

Langen temperature yesterday

Maximum temperature yesterday: 75 °F (at 5:20 PM)
Minimum temperature yesterday: 61 °F (at 3:50 AM)
Average temperature yesterday: 67 °F

Past Weeks' High & Low Weather Summary

 TemperatureHumidityPressure
High79 °F (Sep 6, 3:20 PM)100% (Sep 6, 1:20 AM)30.18 "Hg (Sep 6, 1:20 AM)
Low46 °F (Sep 11, 2:20 AM)46% (Sep 9, 5:50 PM)29.86 "Hg (Sep 6, 4:20 PM)
Average64 °F82%30.00 "Hg
* Reported Sep 5 3:20 PM — Sep 20 3:20 PM, Langen, Weather by CustomWeather, © 2014

Note: Actual official high and low records may vary slightly from our data, if they occured in-between our weather recording intervals... More about our weather records

Advertising

Langen weather history for previous 24 hours

 ConditionsComfort  
Time TempWeatherWind HumidityBarometerVisibility
3:20 PM
Sep 20
73 °FScattered showers. Partly sunny.7 mph74%29.95 "HgN/A
2:50 PM72 °FScattered showers. Broken clouds.6 mph78%29.95 "HgN/A
2:20 PM72 °FScattered showers. Broken clouds.5 mph78%29.95 "HgN/A
1:50 PM73 °FBroken clouds.8 mph78%29.95 "HgN/A
1:20 PM73 °FBroken clouds.7 mph74%29.98 "HgN/A
12:20 PM70 °FPartly sunny.7 mph83%29.98 "HgN/A
11:50 AM68 °FPartly sunny.7 mph88%29.98 "HgN/A
11:20 AM68 °FPartly sunny.7 mph88%29.98 "HgN/A
10:50 AM66 °FPartly sunny.7 mph88%29.98 "HgN/A
10:20 AM64 °FPartly sunny.6 mph100%29.98 "HgN/A
9:50 AM64 °FBroken clouds.5 mph94%29.95 "HgN/A
9:20 AM63 °FPartly sunny.6 mph100%29.95 "HgN/A
8:50 AM63 °FBroken clouds.7 mph100%29.95 "HgN/A
8:20 AM61 °FPartly sunny.5 mph100%29.95 "HgN/A
7:50 AM61 °FPassing clouds.5 mph100%29.95 "HgN/A
7:20 AM61 °FPassing clouds.6 mph100%29.95 "HgN/A
6:50 AM63 °FPassing clouds.5 mph100%29.95 "HgN/A
6:20 AM63 °FPassing clouds.6 mph100%29.95 "HgN/A
5:50 AM63 °FPassing clouds.3 mph94%29.95 "HgN/A
5:20 AM63 °FPassing clouds.8 mph100%29.95 "HgN/A
4:50 AM61 °FPassing clouds.2 mph100%29.95 "HgN/A
4:20 AM61 °FFog.2 mph100%29.95 "HgN/A
3:20 AM61 °FLight fog.1 mph100%29.95 "HgN/A
2:50 AM63 °FLight fog.1 mph100%29.95 "HgN/A
2:20 AM63 °FLight fog.1 mph100%29.95 "HgN/A
1:50 AM63 °FClear.2 mph94%29.95 "Hg10 mi
1:20 AM64 °FClear.3 mph94%29.95 "Hg10 mi
12:50 AM64 °FClear.7 mph94%29.95 "Hg10 mi
12:20 AM63 °FClear.3 mph100%29.95 "Hg10 mi
11:50 PM
Sep 19
63 °FClear.1 mph94%29.95 "Hg10 mi
11:20 PM64 °FClear.2 mph94%29.95 "Hg10 mi
10:50 PM64 °FClear.3 mph94%29.95 "Hg10 mi
10:20 PM66 °FClear.3 mph88%29.95 "Hg10 mi
9:50 PM68 °FLight fog.5 mph88%29.95 "HgN/A
9:20 PM68 °FPassing clouds.No wind88%29.92 "HgN/A
8:50 PM72 °FPassing clouds.5 mph78%29.92 "HgN/A
8:20 PM70 °FScattered clouds.5 mph83%29.92 "HgN/A
Weather by CustomWeather, © 2014

See weather overviewHow to use our weather pages